Overview Statistics Trail Chart Weather Telemetry Raw packets
 

This is the latest recevied weather packets stored in our database for station/object VK5GR-12. If no packets are shown the sender has not sent any weather packets the latest 10 day(s).

<< 28 29 30 31 32 33 34 >>
Time Temp. Humidity Pressure Rain* Wind** Luminosity Snow
1787996557 14.44° C 69% 1033.2 hPa 0 mm - 0 W/m² -
1787995657 15° C 67% 1033.1 hPa 0 mm - 0 W/m² -
1787994755 15.56° C 65% 1033.2 hPa 0 mm - 0 W/m² -
1787993852 15.56° C 64% 1033.1 hPa 0 mm - 0 W/m² -
1787992953 16.67° C 63% 1033 hPa 0 mm - 0 W/m² -
1787992048 17.78° C 61% 1032.7 hPa 0 mm - 3 W/m² -
1787991144 18.33° C 59% 1033 hPa 0 mm - 10 W/m² -
1787990244 20° C 54% 1032.8 hPa 0 mm - 19 W/m² -
1787989340 20.56° C 51% 1032.7 hPa 0 mm - 37 W/m² -
1787988435 21.11° C 50% 1032.7 hPa 0 mm - 65 W/m² -
1787987531 22.22° C 47% 1032.4 hPa 0 mm - 99 W/m² -
1787986627 22.78° C 47% 1032.6 hPa 0 mm - 134 W/m² -
1787985726 22.78° C 46% 1032.4 hPa 0 mm - 167 W/m² -
1787984826 22.78° C 47% 1032.3 hPa 0 mm - 204 W/m² -
1787983921 22.78° C 46% 1032.4 hPa 0 mm - 243 W/m² -
1787983017 23.33° C 45% 1032.4 hPa 0 mm - 284 W/m² -
1787982114 22.78° C 47% 1032.3 hPa 0 mm - 324 W/m² -
1787981211 22.78° C 48% 1032.5 hPa 0 mm - 366 W/m² -
1787980306 22.22° C 48% 1032.6 hPa 0 mm - 382 W/m² -
1787979400 21.11° C 49% 1032.7 hPa 0 mm - 410 W/m² -
1787978500 22.22° C 49% 1032.7 hPa 0 mm - 430 W/m² -
1787977601 22.78° C 42% 1032.7 hPa 0 mm - 465 W/m² -
1787976698 23.89° C 40% 1033 hPa 0 mm - 487 W/m² -
1787975793 23.33° C 42% 1033 hPa 0 mm - 506 W/m² -
1787974890 23.33° C 41% 1033.2 hPa 0 mm - 522 W/m² -

* Rain latest hour (hover to see other rain measurements)
** Current wind speed in m/s (hover to see current wind gust speed)